Volver al catálogo

CRRES DEB

CANISTER

ActivoHEO
NORAD 21948·DEBRIS·🇺🇸 United States

Lanzado Jul 25, 1990 desde Cape Canaveral Space Force Station

Loading…

Próximos Pases (próximas 24 horas)

TLE

ActualizadoSource: Space-Track

Época: Sep 14, 2026, 10:02 UTC

1 21948U 90065S   26257.41869903  .00001962  00000-0  70218-3 0  9995
2 21948  17.9485   0.7803 6200764 257.1905  31.0672  3.72208493366936

Sigue CRRES DEB en tiempo real con AllMySat

Download on the App Store